When you browse on this site, cookies collect data to enhance your experience and personalize the content and advertising you see.
Visit our Privacy Policy to learn more. By continuing to use the site, you agree to this use of cookies and data.

Hourly Weather Szekesfehervar

Today, 10 July, Friday

Time Temperature Precipitation Wind Pressure Humidity
00:00 +20°C° 0 mm 2 mps 751 mmHg 73%
01:00 +20°C° 0 mm 2 mps 751 mmHg 74%
02:00 +20°C° 0 mm 1 mps 751 mmHg 77%
03:00 +20°C° 0 mm 1 mps 751 mmHg 80%
04:00 +19°C° 0 mm 1 mps 751 mmHg 84%
05:00 +19°C° 0 mm 2 mps 751 mmHg 79%
06:00 +21°C° 0 mm 2 mps 751 mmHg 75%
07:00 +23°C° 0 mm 2 mps 751 mmHg 70%
08:00 +25°C° 0 mm 3 mps 751 mmHg 66%
09:00 +27°C° 0 mm 4 mps 751 mmHg 62%
10:00 +28°C° 0 mm 4 mps 751 mmHg 57%
11:00 +29°C° 0 mm 4 mps 751 mmHg 55%
12:00 +30°C° 0 mm 5 mps 750 mmHg 53%
13:00 +32°C° 0 mm 5 mps 750 mmHg 50%
14:00 +32°C° 0 mm 5 mps 750 mmHg 51%
15:00 +32°C° 0 mm 5 mps 749 mmHg 51%
16:00 +32°C° 0 mm 5 mps 749 mmHg 51%
17:00 +30°C° 0 mm 4 mps 749 mmHg 57%
18:00 +28°C° 0 mm 4 mps 748 mmHg 64%
19:00 +27°C° 0 mm 4 mps 748 mmHg 70%
20:00 +25°C° 0 mm 3 mps 748 mmHg 72%
21:00 +24°C° 0 mm 3 mps 748 mmHg 74%
22:00 +23°C° 0 mm 2 mps 749 mmHg 77%
23:00 +21°C° 0 mm 2 mps 749 mmHg 78%

Tomorrow, 11 July, Saturday

Time Temperature Precipitation Wind Pressure Humidity
00:00 +21°C° 0 mm 2 mps 749 mmHg 79%
01:00 +20°C° 0 mm 2 mps 749 mmHg 80%
02:00 +20°C° 0 mm 2 mps 749 mmHg 82%
03:00 +20°C° 0 mm 1 mps 749 mmHg 83%
04:00 +20°C° 0 mm 1 mps 749 mmHg 85%
05:00 +21°C° 0 mm 1 mps 749 mmHg 80%
06:00 +23°C° 0 mm 2 mps 749 mmHg 76%
07:00 +24°C° 0 mm 2 mps 749 mmHg 72%
08:00 +25°C° 0 mm 2 mps 749 mmHg 67%
09:00 +27°C° 0 mm 1 mps 749 mmHg 63%
10:00 +28°C° 0 mm 1 mps 749 mmHg 59%
11:00 +29°C° 0.1 mm 2 mps 749 mmHg 58%
12:00 +30°C° 0.1 mm 3 mps 749 mmHg 57%
13:00 +30°C° 0.1 mm 4 mps 749 mmHg 56%
14:00 +28°C° 0.2 mm 6 mps 749 mmHg 61%
15:00 +24°C° 0.2 mm 8 mps 749 mmHg 66%
16:00 +22°C° 0.2 mm 10 mps 749 mmHg 72%
17:00 +21°C° 0 mm 10 mps 750 mmHg 71%
18:00 +19°C° 0 mm 10 mps 750 mmHg 70%
19:00 +18°C° 0 mm 10 mps 750 mmHg 70%
20:00 +17°C° 0.1 mm 9 mps 751 mmHg 71%
21:00 +16°C° 0.1 mm 9 mps 751 mmHg 73%
22:00 +16°C° 0.1 mm 9 mps 752 mmHg 74%
23:00 +15°C° 0.2 mm 8 mps 752 mmHg 76%

Day after tomorrow, 12 July, Sunday

Time Temperature Precipitation Wind Pressure Humidity
00:00 +15°C° 0.2 mm 7 mps 752 mmHg 79%
01:00 +14°C° 0.2 mm 7 mps 752 mmHg 81%
02:00 +14°C° 0 mm 7 mps 752 mmHg 80%
03:00 +14°C° 0 mm 7 mps 752 mmHg 78%
04:00 +14°C° 0 mm 7 mps 753 mmHg 77%
05:00 +13°C° 0.1 mm 6 mps 753 mmHg 77%
06:00 +13°C° 0.1 mm 6 mps 753 mmHg 77%
07:00 +13°C° 0.1 mm 6 mps 753 mmHg 77%
08:00 +15°C° 0 mm 6 mps 754 mmHg 72%
09:00 +17°C° 0 mm 6 mps 754 mmHg 67%
10:00 +19°C° 0 mm 6 mps 755 mmHg 61%
11:00 +20°C° 0 mm 5 mps 755 mmHg 61%
12:00 +20°C° 0 mm 5 mps 755 mmHg 60%
13:00 +21°C° 0 mm 4 mps 755 mmHg 59%
14:00 +21°C° 0 mm 4 mps 755 mmHg 59%
15:00 +21°C° 0 mm 3 mps 755 mmHg 59%
16:00 +21°C° 0 mm 3 mps 755 mmHg 59%
17:00 +20°C° 0 mm 3 mps 755 mmHg 65%
18:00 +19°C° 0 mm 2 mps 755 mmHg 71%
19:00 +18°C° 0 mm 2 mps 755 mmHg 77%
20:00 +17°C° 0 mm 2 mps 756 mmHg 81%
21:00 +15°C° 0 mm 1 mps 756 mmHg 85%
22:00 +14°C° 0 mm 1 mps 756 mmHg 88%
23:00 +14°C° 0 mm 1 mps 756 mmHg 89%

13 July, Monday

Time Temperature Precipitation Wind Pressure Humidity
00:00 +14°C° 0 mm 1 mps 756 mmHg 90%
01:00 +13°C° 0 mm 1 mps 756 mmHg 91%
02:00 +13°C° 0 mm 1 mps 756 mmHg 92%
03:00 +12°C° 0 mm 2 mps 756 mmHg 92%
04:00 +12°C° 0 mm 2 mps 756 mmHg 92%
05:00 +13°C° 0 mm 2 mps 756 mmHg 87%
06:00 +15°C° 0 mm 2 mps 756 mmHg 82%
07:00 +16°C° 0 mm 2 mps 756 mmHg 76%
08:00 +18°C° 0 mm 2 mps 756 mmHg 69%
09:00 +20°C° 0 mm 2 mps 756 mmHg 61%
10:00 +21°C° 0 mm 3 mps 756 mmHg 53%
11:00 +22°C° 0 mm 3 mps 755 mmHg 50%
12:00 +22°C° 0 mm 3 mps 755 mmHg 47%
13:00 +24°C° 0 mm 3 mps 755 mmHg 44%
14:00 +24°C° 0 mm 3 mps 754 mmHg 44%
15:00 +24°C° 0 mm 3 mps 754 mmHg 44%
16:00 +24°C° 0 mm 3 mps 754 mmHg 44%
17:00 +23°C° 0 mm 2 mps 753 mmHg 51%
18:00 +21°C° 0 mm 2 mps 753 mmHg 58%
19:00 +19°C° 0 mm 2 mps 753 mmHg 64%
20:00 +18°C° 0 mm 2 mps 753 mmHg 69%
21:00 +16°C° 0 mm 2 mps 753 mmHg 73%
22:00 +15°C° 0 mm 1 mps 753 mmHg 78%
23:00 +15°C° 0 mm 1 mps 753 mmHg 79%

14 July, Tuesday

Time Temperature Precipitation Wind Pressure Humidity
00:00 +14°C° 0 mm 1 mps 753 mmHg 81%
01:00 +14°C° 0 mm 1 mps 753 mmHg 82%
02:00 +13°C° 0 mm 1 mps 753 mmHg 83%
03:00 +13°C° 0 mm 1 mps 753 mmHg 85%
04:00 +12°C° 0 mm 1 mps 753 mmHg 86%
05:00 +14°C° 0 mm 1 mps 753 mmHg 80%
06:00 +16°C° 0 mm 1 mps 753 mmHg 74%
07:00 +19°C° 0 mm 1 mps 753 mmHg 68%
08:00 +20°C° 0 mm 1 mps 753 mmHg 63%
09:00 +22°C° 0 mm 1 mps 753 mmHg 57%
10:00 +22°C° 0 mm 0 mps 753 mmHg 51%
11:00 +24°C° 0 mm 1 mps 752 mmHg 49%
12:00 +25°C° 0 mm 1 mps 752 mmHg 46%
13:00 +26°C° 0 mm 2 mps 752 mmHg 43%
14:00 +26°C° 0 mm 1 mps 751 mmHg 43%
15:00 +26°C° 0 mm 1 mps 751 mmHg 44%
16:00 +26°C° 0 mm 1 mps 751 mmHg 44%
17:00 +24°C° 0 mm 2 mps 751 mmHg 51%
18:00 +23°C° 0 mm 2 mps 751 mmHg 57%
19:00 +21°C° 0 mm 2 mps 750 mmHg 64%
20:00 +19°C° 0 mm 2 mps 751 mmHg 66%
21:00 +18°C° 0 mm 2 mps 751 mmHg 67%
22:00 +17°C° 0 mm 2 mps 751 mmHg 69%
23:00 +17°C° 0 mm 2 mps 751 mmHg 71%

15 July, Wednesday

Time Temperature Precipitation Wind Pressure Humidity
00:00 +16°C° 0 mm 1 mps 751 mmHg 73%
01:00 +16°C° 0 mm 1 mps 751 mmHg 75%
02:00 +15°C° 0 mm 1 mps 751 mmHg 76%
03:00 +15°C° 0 mm 1 mps 751 mmHg 77%
04:00 +15°C° 0 mm 1 mps 750 mmHg 79%
05:00 +16°C° 0 mm 1 mps 751 mmHg 74%
06:00 +19°C° 0 mm 1 mps 751 mmHg 70%
07:00 +20°C° 0 mm 1 mps 751 mmHg 66%
08:00 +22°C° 0 mm 1 mps 751 mmHg 62%
09:00 +23°C° 0 mm 2 mps 751 mmHg 57%
10:00 +25°C° 0 mm 2 mps 751 mmHg 53%
11:00 +25°C° 0.1 mm 2 mps 751 mmHg 52%
12:00 +25°C° 0.1 mm 2 mps 751 mmHg 51%
13:00 +26°C° 0.1 mm 3 mps 750 mmHg 51%
14:00 +26°C° 0.1 mm 2 mps 750 mmHg 51%
15:00 +26°C° 0.1 mm 2 mps 750 mmHg 51%
16:00 +26°C° 0.1 mm 1 mps 750 mmHg 51%
17:00 +25°C° 0 mm 1 mps 750 mmHg 55%
18:00 +24°C° 0 mm 1 mps 749 mmHg 60%
19:00 +23°C° 0 mm 1 mps 749 mmHg 64%
20:00 +22°C° 0 mm 1 mps 750 mmHg 66%
21:00 +21°C° 0 mm 1 mps 750 mmHg 68%
22:00 +20°C° 0 mm 1 mps 750 mmHg 70%
23:00 +19°C° 0 mm 1 mps 750 mmHg 70%
Show more